STARLINK-35000, 65278

Orbit data source: Space-Track

STARLINK-35000, 65278 is a payload satellite owned by SpaceX/Seattle (US) in SSO that was launched on Fri, 22 Aug 2025 UTC via an FALCON 9 launch vehicle from the Air Force Western Test Range (AFWTR). Payload-class satellites include a variety of spacecraft equipped with specific instruments for various scientific and technological missions. These include communications satellites like Starlink; space stations such as the ISS; scientific satellites like the Hubble; Earth observation satellites from companies like Planet Labs, Umbra, and HawkEye 360; GPS; miniature CubeSats for education and research; and military/defense satellites.

Loading next visibility...
Identifier
65278, 2025-184F
Orbit
SSO
Country
Flag of USUS
Related business
Manufacturer
SpaceX/Seattle
Mission
Operational Commercial Communications
Bus & Motor
STARLINK V2MO, Unknown motor
Mass
575 kg wet, ~530 kg dry
Launch date (UTC)
2025-08-22 (10 months ago)
Launch vehicle
FALCON 9
Launch site
Air Force Western Test Range (AFWTR)
Object type
Payload
Rocket body
Debris
Shape & HBR
Box + 2 Pan, 17.7 m
Radar Cross Section
36.964 m², Large (>1 m²)

Expand to show TLE details & history
Last TLE update: 14 hours ago

TLE from 14 hours ago
0 STARLINK-35000
1 65278U 25184F   26171.40931125  .00003328  00000-0  23443-3 0  9995
2 65278  97.3383 222.7668 0002171 129.4290 230.7130 15.05657259 46757
Epoch: 2026-06-20T09:49Z
TLE epoch observation values (Epoch: 2026-06-20T09:49:24.492Z)
Latitude
-0.00005°
Longitude
166.79041°
Altitude
553.514 km
Speed
7.584 km/s
True Right ascension
14h 51m 04s
True Declination
0° 00' 00"
Sunlit
Object was in full shadow at epoch
Visualization orbit readout
Latitude
Unknown
Longitude
Unknown
Altitude
Unknown
Speed
Unknown
Apparent Right ascension
Unknown
Apparent Declination
Unknown
Sunlit
N/A
Visualization observer readout
Local Sidereal Time
10:20:33
Azimuth
Unknown
Elevation
Unknown
Doppler factor
Unknown
Orbital elements
Apogee altitude
547.974 km
Perigee altitude
544.968 km
Semi-major axis
6,924.608 km
Eccentricity
0.00022
Inclination
97.3383°
RAAN
222.7668°
Arg. of periapsis
129.429°
True anomaly
230.69375°
Mean anomaly
230.713°
Eccentric anomaly
230.70337°
Mean motion
3.76661 °/min
Orbital period
95.58 mins
BSTAR
0.00023443
Loading maneuver chart data...
Computing Atmospheric mass density...
Loading historical data...
Loading historical data...
Loading historical data...
Loading historical data...
Loading historical data...
Loading historical data...
Loading historical data...

Documentation

Showing up to 5 results
|